Theta_e
355 355 357 356 356 355 353 353 352 353 352 350 350 351 352 353 352 350 352 345 343 348 349 350 350 345 343 343 342 341 339 334 328 333 338 339 341 342 342 343 343 341 342
355 353 354 355 354 356 353 354 355 354 353 351 353 352 353 351 350 350 348 348 344 341 343 344 341 341 341 342 342 341 337 332 329 328 327 335 333 332 340 342 343 342 340
357 357 354 353 352 354 353 352 353 352 351 353 353 352 352 352 350 350 347 346 348 345 342 344 340 336 341 342 340 338 335 330 330 330 332 333 331 328 333 338 341 343 340
357 357 355 353 352 354 353 353 353 353 352 353 353 353 351 351 350 348 347 346 344 344 340 339 339 340 339 339 339 335 334 332 335 335 334 333 332 332 333 335 336 339 342
357 358 353 354 357 355 355 354 352 353 354 354 351 352 352 350 348 346 346 345 344 343 341 336 334 338 337 337 337 337 337 336 333 333 333 334 332 331 333 334 335 334 341
358 357 355 357 359 355 353 355 358 357 355 355 350 350 352 351 348 346 345 343 341 340 337 337 336 333 327 327 328 328 330 333 337 334 333 335 333 331 331 333 333 332 340
356 359 355 355 356 355 358 356 356 354 354 354 351 346 351 348 346 342 340 339 339 336 335 334 331 329 328 326 327 328 326 329 334 336 335 333 331 332 334 333 331 330 337
355 356 358 356 357 357 356 358 357 356 355 354 355 347 345 350 347 342 340 339 338 336 334 331 328 328 327 327 327 326 325 325 328 334 335 334 332 333 333 333 333 333 336
356 358 359 359 359 359 353 359 356 355 355 354 356 350 339 336 337 345 342 339 338 337 334 329 328 328 327 326 326 325 324 324 324 328 334 334 332 333 334 335 335 339 336
356 356 359 359 360 357 358 356 356 358 358 353 347 347 346 342 338 338 342 340 337 337 334 329 328 328 328 325 327 323 323 322 323 323 330 334 334 332 331 334 335 337 337
357 357 358 358 359 355 360 359 357 358 357 354 344 338 341 338 337 335 333 334 336 333 331 329 328 326 327 325 326 325 323 321 320 322 324 330 334 333 332 333 337 336 335
353 359 358 358 361 361 360 359 357 359 354 351 343 337 334 332 331 330 329 330 330 333 330 328 327 326 325 324 326 325 320 320 320 318 318 326 331 333 333 332 334 335 335
353 358 360 359 358 363 361 361 358 358 354 351 345 335 330 326 324 324 325 326 330 328 330 327 326 326 323 323 326 323 321 318 316 318 320 322 329 331 332 332 333 335 335
353 359 358 358 362 361 360 362 359 356 353 343 339 335 324 321 321 321 321 323 326 326 330 331 327 326 324 324 324 323 323 318 316 316 318 320 322 328 331 333 333 334 334
353 357 358 358 361 360 360 361 359 352 343 339 334 330 323 321 321 321 321 321 322 325 325 330 325 326 324 326 323 323 323 317 316 316 315 317 319 321 326 330 331 331 329
359 357 358 358 359 361 361 362 355 344 342 337 331 330 325 322 321 320 321 322 323 323 326 326 325 325 325 325 322 324 320 320 315 315 315 315 317 317 321 325 328 329 330
357 358 359 359 358 361 361 362 354 343 337 337 332 328 325 324 320 319 321 324 325 325 326 327 325 325 325 325 324 324 321 321 318 315 315 315 314 316 318 322 325 328 329
355 356 358 358 357 358 362 362 355 345 338 339 331 325 323 320 319 325 326 326 325 324 325 326 325 324 324 324 324 324 321 320 319 315 315 315 314 314 315 317 319 324 326
353 353 356 357 355 357 362 362 356 344 339 336 329 324 322 319 327 327 326 325 324 323 324 323 323 323 323 323 323 322 322 320 319 315 315 314 314 314 313 314 315 317 325
351 352 354 355 355 360 363 362 354 343 336 333 327 322 319 324 327 326 325 325 325 323 324 323 323 322 321 321 321 321 319 316 317 316 315 314 315 313 313 313 313 314 319
352 350 351 353 357 361 363 362 352 341 334 331 323 317 320 324 323 323 324 325 324 324 323 321 321 321 320 319 320 321 320 315 314 315 315 314 315 315 316 315 313 313 315
356 351 350 351 359 359 361 359 351 341 333 327 317 319 321 318 318 318 318 319 321 324 323 322 321 321 319 317 319 320 320 318 316 314 313 313 313 313 314 315 313 312 314
358 355 351 354 359 361 361 360 356 342 334 320 318 321 321 322 322 320 317 319 319 319 319 321 321 319 318 317 315 318 318 315 313 313 313 313 312 313 313 314 314 312 312
360 359 356 356 360 361 362 360 356 341 331 317 321 322 321 323 323 322 323 323 322 320 319 319 319 317 315 316 316 318 317 314 312 313 313 312 311 311 311 313 314 313 312
362 362 361 362 362 361 363 359 353 339 329 317 320 321 322 323 319 318 321 322 323 321 316 318 318 318 315 313 316 319 318 316 314 311 312 312 311 311 311 311 314 314 314
363 361 362 363 363 363 362 360 349 342 329 319 319 322 320 320 312 314 322 322 323 322 323 322 321 319 319 316 316 317 317 317 314 313 312 311 311 311 311 312 313 314 314
Wind_Speed
7 7 8 8 8 8 9 10 9 8 10 12 11 11 9 7 6 6 5 10 11 9 4 5 7 5 6 10 15 11 9 10 27 21 13 16 18 19 27 27 28 29 29
6 8 9 8 9 9 8 9 10 11 10 12 11 11 9 7 8 7 7 6 12 13 10 8 6 4 4 5 7 11 14 14 17 21 15 23 24 20 27 28 28 30 31
4 5 8 10 11 9 8 10 10 10 10 8 8 6 7 7 7 8 9 9 7 12 14 15 14 14 19 15 9 5 6 0 5 7 18 20 25 21 35 33 30 30 33
5 6 8 8 8 8 9 10 12 13 12 11 9 6 5 6 6 9 10 11 10 8 15 18 21 21 19 19 14 10 6 3 8 16 13 14 16 24 26 35 34 32 33
3 4 6 7 8 8 9 12 15 14 12 12 9 5 5 5 7 9 10 11 10 9 9 11 15 18 19 18 14 11 8 6 5 9 12 14 15 19 25 29 32 29 33
2 4 6 7 8 9 12 13 12 12 10 9 9 3 4 5 7 8 9 9 9 9 9 8 7 11 15 16 17 15 12 10 11 6 10 11 17 18 16 24 27 28 33
4 5 7 8 9 10 10 12 14 14 12 10 10 6 8 3 5 7 7 7 5 6 7 8 9 9 11 14 18 19 17 14 13 12 9 7 8 13 14 17 27 37 30
6 5 7 10 10 11 8 10 12 13 10 9 9 11 2 5 3 5 5 4 3 4 5 7 8 10 11 12 13 18 18 17 14 15 11 8 4 7 8 14 19 37 41
5 4 7 10 10 7 10 9 12 11 12 8 7 8 6 5 5 0 1 3 3 1 3 4 6 8 10 11 12 14 18 17 17 14 16 13 7 3 4 10 11 27 37
3 4 6 8 8 9 10 11 10 9 7 9 7 5 5 8 8 3 4 1 3 4 2 2 4 7 10 10 10 15 16 17 17 17 15 16 8 1 3 7 23 29 36
2 3 6 8 7 9 10 10 10 8 6 8 8 9 5 5 3 8 7 1 4 2 4 3 5 7 8 10 11 13 16 17 16 17 16 13 14 8 3 3 22 29 33
1 3 7 6 6 8 9 8 7 6 6 6 6 7 7 8 9 9 7 5 5 2 4 3 4 6 7 9 8 9 15 17 17 15 14 13 13 11 7 8 11 24 29
3 3 6 6 5 7 7 6 5 5 5 5 5 6 6 7 8 9 9 9 5 4 3 3 4 5 7 7 7 8 13 14 16 16 15 13 14 12 12 10 13 20 26
5 2 5 6 5 6 5 5 4 5 3 3 4 4 5 5 6 7 8 10 8 4 4 3 1 4 5 6 4 7 11 12 15 13 15 14 13 14 12 15 15 20 24
8 4 3 5 6 6 5 3 2 1 3 2 3 4 5 5 5 6 6 7 9 7 6 5 3 3 4 5 3 5 8 10 14 13 14 13 12 12 12 11 17 20 23
9 6 5 5 7 6 3 2 0 2 2 2 2 3 5 5 5 6 6 6 6 8 5 5 3 3 4 3 2 5 7 10 13 15 15 13 11 10 12 12 13 18 21
13 10 9 7 6 6 3 1 2 4 4 2 2 3 5 6 5 6 6 6 7 8 8 5 2 2 1 0 1 3 5 5 9 11 12 13 11 11 10 11 12 14 18
16 13 11 9 8 7 5 5 5 6 4 3 2 3 4 4 4 5 5 7 8 8 8 4 5 2 3 1 1 2 3 5 10 9 10 10 10 9 9 9 11 12 12
18 16 13 12 10 9 7 7 7 7 6 4 3 3 4 4 6 7 8 8 7 8 7 7 5 5 2 2 3 3 4 5 6 4 6 8 8 8 6 8 8 9 12
19 18 16 13 11 10 8 9 9 9 10 6 5 4 5 5 7 7 7 7 8 7 7 9 7 7 8 7 4 6 9 6 5 4 3 4 7 7 6 7 7 8 11
19 18 18 15 12 11 10 12 12 11 11 10 7 7 8 7 8 6 6 9 9 11 12 11 10 10 10 7 5 4 6 7 6 5 6 6 8 7 7 8 7 9 15
18 18 18 16 14 13 15 15 14 13 14 13 11 10 12 12 12 11 11 11 11 11 13 14 12 10 9 8 5 4 8 6 3 5 7 6 6 8 8 9 9 12 15
17 18 18 17 16 13 12 15 15 14 15 16 13 14 12 10 11 9 9 10 11 15 14 13 12 9 7 8 4 6 8 9 5 3 11 10 8 8 7 9 10 12 14
17 18 19 18 17 15 16 17 16 15 15 18 15 14 11 13 10 7 4 4 7 10 11 13 13 11 10 7 2 1 7 10 9 6 8 5 8 7 6 9 11 12 14
17 19 18 18 17 15 17 19 19 16 16 18 15 13 13 12 12 11 4 2 2 4 6 12 16 19 18 18 11 7 5 8 5 6 7 9 6 9 6 9 13 12 13
18 18 18 17 17 15 19 22 22 16 18 19 16 13 17 12 13 10 4 3 2 1 2 4 7 10 13 16 17 14 9 7 7 4 4 5 4 3 4 13 15 12 14
Wind_Direction
13 8 3 3 4 7 5 5 3 354 354 355 353 351 349 356 1 360 35 10 25 31 5 308 294 250 255 275 269 254 238 308 335 354 285 234 234 239 235 230 221 215 211
3 7 4 3 9 6 0 2 2 0 350 355 358 10 22 32 26 20 20 37 18 28 33 30 24 2 334 298 247 235 270 222 234 221 241 236 248 268 247 226 225 218 215
329 344 4 7 7 1 1 2 356 356 355 357 5 14 27 35 32 35 29 29 41 42 50 55 61 64 58 58 82 116 151 282 193 204 221 229 235 246 246 230 225 219 215
328 348 358 352 354 359 359 357 359 355 358 0 1 8 28 44 38 36 35 32 33 47 59 69 70 67 61 63 66 53 8 342 236 233 235 222 231 244 246 237 228 215 213
330 345 346 349 351 354 357 357 358 358 353 358 351 21 27 36 30 32 35 35 41 50 74 53 55 68 68 65 65 53 33 2 302 284 276 255 244 248 241 231 222 229 215
345 349 351 347 348 346 359 356 353 353 336 355 342 14 28 27 24 27 24 36 45 60 65 57 43 41 34 38 41 37 28 23 11 343 273 254 241 250 256 227 217 213 213
349 329 344 340 334 335 346 353 351 351 349 350 316 355 125 60 27 25 23 27 44 61 63 49 38 27 20 24 25 25 20 18 13 12 1 296 227 249 252 220 224 224 210
324 325 335 340 334 330 343 350 353 347 341 357 339 314 293 158 62 7 22 25 42 62 53 42 40 31 25 15 26 29 25 22 12 17 11 0 327 250 248 234 235 226 215
323 333 336 337 340 336 358 351 353 352 345 349 3 343 329 356 337 145 17 3 340 334 5 38 33 30 27 23 16 19 24 25 21 16 23 20 3 351 218 205 194 153 158
332 345 358 1 359 1 359 355 356 347 341 359 351 14 350 346 336 326 177 126 284 275 314 337 6 21 20 16 45 22 25 21 21 20 20 27 33 282 206 195 171 159 168
22 54 4 357 6 358 1 353 357 351 2 0 359 347 349 317 330 323 328 89 206 252 282 312 356 3 9 14 21 17 26 20 18 25 22 28 36 56 155 162 158 162 166
289 4 359 355 10 1 359 356 3 20 25 24 8 0 359 348 343 326 327 318 331 322 287 300 337 349 1 4 45 30 16 26 26 26 32 29 43 58 98 150 144 153 153
267 17 356 342 352 0 354 2 10 41 28 16 5 3 7 360 342 335 322 329 309 321 292 281 319 333 345 359 38 43 21 27 31 32 37 49 47 55 91 121 159 155 153
251 321 337 320 336 351 341 337 24 42 32 33 44 33 19 17 10 4 347 333 322 304 216 255 289 327 343 356 40 71 41 35 33 41 49 46 55 55 98 118 123 135 140
245 241 294 293 316 327 332 351 45 345 78 47 48 36 22 21 11 4 354 345 339 329 336 100 326 63 340 44 52 62 62 48 44 50 58 65 62 66 73 112 125 129 134
237 247 252 267 299 307 305 354 11 154 118 67 39 37 27 14 7 3 356 350 342 323 312 24 49 354 335 59 83 89 83 69 61 56 57 62 68 76 76 89 128 151 146
232 229 236 252 279 294 291 241 196 186 173 131 85 52 50 36 16 15 6 2 359 346 319 48 2 38 320 252 160 107 89 90 85 62 58 56 64 79 96 96 105 138 161
232 228 231 241 259 269 273 213 210 200 181 154 140 101 76 54 41 19 24 21 21 17 349 349 24 37 93 299 267 95 93 88 100 81 67 57 56 72 103 116 108 112 141
233 231 231 239 251 246 246 210 206 193 175 160 156 129 93 67 57 41 36 26 24 25 15 16 20 28 10 10 284 130 85 90 96 85 70 71 63 61 87 123 137 129 130
230 234 233 239 243 233 224 196 194 181 171 159 150 128 108 95 81 64 48 38 25 10 24 22 27 31 21 38 8 72 87 84 82 84 73 74 85 72 94 112 131 151 146
228 231 234 233 231 228 212 191 195 176 172 156 151 134 120 130 122 95 62 45 27 17 16 34 38 39 29 16 26 38 90 105 85 75 103 97 88 80 95 98 123 135 156
222 225 229 223 224 230 210 213 189 173 176 165 152 144 129 118 112 103 90 81 68 33 36 26 39 35 19 9 12 13 69 129 107 62 103 95 93 79 109 125 133 142 153
216 219 223 220 221 222 217 217 202 175 178 167 162 154 150 146 126 119 94 68 60 49 51 39 37 27 15 4 351 333 76 89 70 103 120 98 95 81 99 125 127 132 147
211 215 221 218 219 218 218 210 194 174 172 171 168 162 160 159 160 151 128 87 63 52 49 51 51 45 33 16 42 42 116 108 85 104 131 94 98 94 108 136 143 139 141
210 217 221 218 215 210 213 206 184 173 173 171 167 167 166 170 178 164 163 146 95 94 61 41 43 45 37 47 67 92 126 136 105 57 106 114 105 99 137 150 150 149 151
216 219 222 218 215 205 214 204 179 177 174 174 165 173 171 176 176 163 175 180 220 157 58 67 47 61 49 45 52 60 67 100 137 108 94 108 125 118 77 143 149 148 147